Weather Roundup
Issued by NWS

Home | Current Version | Previous Version | Graphics & Text | Print | Product List | Glossary Off
Versions: 1 2 3 4 5 6 7 8 9 10 11 12 13 14 15 16 17 18 19 20 21 22 23 24 25 26 27 28 29 30 31 32 33 34 35 36 37 38 39 40 41 42 43 44 45 46 47 48 49 50

000
NZUS93 KARX 231659
HRRWXR

CURRENT HOURLY OBSERVATIONS ACROSS
MUCH OF THE UPPER MISSISSIPPI VALLEY
NATIONAL WEATHER SERVICE LA CROSSE WI
1100 AM CST THU NOV 23 2017


...SOUTHEAST MINNESOTA...


CITY           SKY/WX    TMP DP  RH WIND       PRES   REMARKS
ROCHESTER      SUNNY     37  21  52 W6        29.93S WCI  32
ROCHESTER/MAYO FAIR      36  20  53 NW5       29.94F WCI  32
WINONA         SUNNY     36  23  60 CALM      29.96R
AUSTIN         NOT AVBL
ALBERT LEA     SUNNY     37  19  48 CALM      29.94F
DODGE CENTER   SUNNY     37  19  48 W3        29.93S
PRESTON        SUNNY     36  21  53 W5        29.93S WCI  32
OWATONNA       SUNNY     37  21  52 CALM      29.94F
FARIBAULT      SUNNY     36  21  55 CALM      29.94F
$$

...ELSEWHERE IN MINNESOTA...


CITY           SKY/WX    TMP DP  RH WIND       PRES   REMARKS
MINNEAPOLIS    MOSUNNY   35  21  56 S3        29.95S
INTNL FALLS    CLOUDY    25  19  78 CALM      29.81F
DULUTH         MOSUNNY   29  22  75 W7        29.85F WCI  22
RED WING       SUNNY     36  18  48 SW3       29.95S
REDWOOD FALLS  SUNNY     37  22  54 SW6       29.94F WCI  32
MANKATO        SUNNY     34  20  56 SW3       29.96S
WORTHINGTON    SUNNY     42  26  53 SW7       29.96S
FAIRMONT       SUNNY     38  24  57 W3        29.96F
$$

...SOUTHWEST WISCONSIN...


CITY           SKY/WX    TMP DP  RH WIND       PRES   REMARKS
LA CROSSE      SUNNY     37  20  50 VRB3      29.94F
PRAIRIE DU CHI SUNNY     37  19  49 CALM      29.96S
BOSCOBEL       SUNNY     39  20  46 S3        29.95F
LONE ROCK      NOT AVBL
PLATTEVILLE    SUNNY     37  23  56 W5        29.95S WCI  34
FORT MC COY    SUNNY     36  20  53 CALM      29.95S
CAMP DOUGLAS   SUNNY     39  19  43 NW3       29.92F
MAUSTON-NEW LI SUNNY     37  20  50 NW6       29.94R WCI  32
VIROQUA        FAIR      34  22  60 CALM      29.92F
WIS DELLS      SUNNY     38  19  46 W6        29.93R WCI  33
$$

...ELSEWHERE IN WISCONSIN...


CITY           SKY/WX    TMP DP  RH WIND       PRES   REMARKS
MILWAUKEE      MOSUNNY   40  23  50 SW12      29.94F WCI  33
MADISON        SUNNY     37  21  52 VRB6      29.93F WCI  32
GREEN BAY      MOSUNNY   38  22  52 VRB7      29.93S WCI  33
EAU CLAIRE     NOT AVBL
BLACK RVR FLS  FAIR      37  18  46 NW3       29.93F
MEDFORD        SUNNY     32  19  58 NW5       29.89F WCI  27
WAUSAU         SUNNY     34  19  54 NW5       29.89F WCI  30
WIS RAPIDS     SUNNY     36  19  50 NW3       29.93F
MARSHFIELD     SUNNY     36  18  48 W7        29.90F WCI  30
RICE LAKE      SUNNY     32  22  67 CALM      29.94R
$$

...NORTHEAST IOWA...


CITY           SKY/WX    TMP DP  RH WIND       PRES   REMARKS
WATERLOO       SUNNY     40  22  48 W6        29.95F
DUBUQUE        SUNNY     39  22  50 NW5       29.94F
DECORAH        SUNNY     36  21  55 CALM      29.92F
MASON CITY     SUNNY     40  23  50 NW7       29.97S
CHARLES CITY   SUNNY     39  21  48 NW3       29.95S
OELWEIN        SUNNY     39  25  56 NW5       29.95F
$$

...ELSEWHERE IN IOWA...


CITY           SKY/WX    TMP DP  RH WIND       PRES   REMARKS
DES MOINES     MOSUNNY   45  26  47 NW7       29.99F
IOWA CITY      SUNNY     43  24  47 W3        29.99S
FORT DODGE     SUNNY     42  27  55 VRB3      29.98S
MARSHALLTOWN   SUNNY     43  26  51 N5        29.96S
CEDAR RAPIDS   SUNNY     42  23  46 NW7       29.96S
$$

...NORTHERN ILLINOIS...


CITY           SKY/WX    TMP DP  RH WIND       PRES   REMARKS
CHICAGO-OHARE  MOSUNNY   41  21  44 SW12G21   29.97F
CHICAGO-MIDWAY NOT AVBL
MOLINE         SUNNY     44  23  43 W8        29.97F
ROCKFORD       SUNNY     41  22  46 SW7       29.98F
PEORIA         SUNNY     42  23  46 SW9       30.00F
$$

NOTE: "FAIR" INDICATES FEW OR NO CLOUDS BELOW 12,000 FEET WITH NO
SIGNIFICANT WEATHER AND/OR OBSTRUCTIONS TO VISIBILITY. WIND
SPEEDS ARE IN MILES-PER-HOUR.




USA.gov is the U.S. government's official web portal to all federal, state and local government web resources and services.